Simultaneous Nadir Overpasses (SNOs) Predictions

Prediction of SNOs near US between AQUA and NPP Satellite Orbit:

Table of predicted SNOs near US for the next 10.0 days since TLE Epoch: 8/6/2016
Index Date (AQUA) Time (AQUA) AQUA Lat,Lon Date (NPP) Time (NPP) NPP Lat,Lon Distance(km) Time Diff (sec)
1 08/06/2016 19:06:02 49.98, -92.53 08/06/2016 19:01:51 49.62, -94.35 136.47 251
2 08/06/2016 20:44:55 49.97,-117.25 08/06/2016 20:43:20 49.58,-119.70 181.74 95
3 08/09/2016 08:34:32 20.73,-101.72 08/09/2016 08:26:24 20.72,-101.84 12.66 488
4 08/09/2016 10:10:55 29.76,-124.22 08/09/2016 10:05:17 29.90,-124.83 61.22 338
5 08/12/2016 07:18:25 49.93, -75.99 08/12/2016 07:20:48 50.35, -78.14 160.16 143
6 08/12/2016 08:57:18 49.94,-100.71 08/12/2016 09:02:16 50.46,-103.46 204.63 298
7 08/14/2016 18:16:33 49.95, -80.16 08/14/2016 18:11:02 49.67, -81.67 112.85 331
8 08/14/2016 19:55:26 49.94,-104.88 08/14/2016 19:52:30 49.56,-107.00 158.11 176
9 08/14/2016 21:30:37 36.71,-124.99 08/14/2016 21:30:10 36.24,-127.52 231.95 27




NCC Satellite Simultaneous Nadir Overpasses (SNOs) Prediction Service
